Погода в Старой Тушке

Россия / Кировская область     56°44′50″N   50°30′52″E
темп.,
°C
ветер,
м/с
пор.,
м/с
влажн.,
%
обл.,
%
осадки,
мм/ч
давл.,
гПа
погр.,
м
21 апреля, ср
ср2100:00+1юв4116249 0.0 1029178
03:000вюв4116397 0.0 1029200
06:00+3юв61553100 0.0 1028549
09:00+7юв81541100 0.0 1027973
12:00+7юв81541100 0.1 10251084
15:00+7ююв81443100 0.1 10241056
18:00+5ююв91659100 0.3 10241003
21:00+2ююв81897100 3.3 1023769
22 апреля, чт
чт2200:00+2ююв81697100 0.7 1022829
03:00+3ююв71496100 1.1 1022765
06:00+4ю71394100 0.1 1022572
09:00+5ю61291100 0.1 1024548
12:00+6ю599195 0.0 1024472
15:00+8ю6982100 0.1 1024752
18:00+7ююв61185100 0.0 1025645
21:00+5ю512918 0.1 1025386
23 апреля, пт
пт2300:00+4ююв51194100 0.0 1025402
03:00+4ю489599 0.2 1026337
06:00+4ю3593100 0.1 1026231
09:00+6ю348599 0.1 1027483
12:00+9ююз3472100 0.0 1026906
15:00+10вюв2371100 0.0 1026166
18:00+9вюв3680100 0.0 1026167
21:00+7юв3682100 0.0 1025144
24 апреля, сб
сб2400:00+7вюв3786100 0.0 1024187
03:00+6вюв3890100 0.0 1023275
06:00+5в4987100 0.0 1022412
09:00+8в4672100 0.0 1019763
12:00+9в4573100 0.0 10171057
15:00+7в3687100 0.1 1016470
18:00+6в2594100 0.1 1015346
21:00+5вюв2596100 0.1 1013245
25 апреля, вс
вс2500:00+5юв2596100 0.0 1012183
03:00+5юв3597100 0.0 1010180
06:00+5вюв4894100 0.0 1008324
09:00+7ю6883100 0.4 10071073
12:00+4з61494100 3.8 1009807
15:00+10зюз7114951 4.3 10092231
18:00+8зюз49583 0.1 1011279
21:00+4юз35720 0.1 101269